Vorticity
6 6 -0 1 5 9 -16 10 -6 8 1 10 4 10 3 4 1 4 -5 16 -3 0 -2 23 14 14 14 13 7 7 8 8 3 3 4 7 2 8 6 7 5 6 4 13
5 4 5 5 8 10 13 12 -3 14 1 -10 6 11 14 2 -10 9 12 8 -4 -6 15 9 14 11 9 14 13 8 4 2 2 3 3 5 5 8 9 7 7 8 13 10
1 -2 39 5 6 9 -2 -4 1 12 -5 -9 6 3 -5 3 20 12 -5 20 7 0 10 11 9 13 12 9 10 11 14 16 15 17 15 12 12 11 9 8 7 8 10 10
18 27 -26 19 24 3 7 2 10 9 6 3 6 12 15 2 9 20 10 9 2 3 3 8 12 14 15 15 13 11 9 10 11 9 10 9 11 12 7 10 13 5 7 11
2 10 23 -9 -6 28 10 8 6 0 13 14 13 4 20 27 16 17 36 2 -1 -2 11 9 16 9 10 9 7 9 9 6 8 12 13 13 12 8 12 11 5 9 8 10
22 4 17 25 -8 13 27 13 10 6 -2 36 1 -17 26 17 11 8 7 9 6 -0 8 19 9 6 7 7 8 6 6 9 7 9 9 11 11 12 9 7 7 6 7 5
13 20 -2 4 -15 2 29 -1 9 20 16 -4 15 30 -47 -11 30 -5 35 3 6 6 18 22 8 9 7 9 4 5 3 5 8 9 9 13 12 10 6 6 8 7 3 4
-5 53 1 23 24 -5 -1 -9 -52 8 6 4 20 20 -26 8 9 13 31 15 19 2 3 19 9 7 10 4 4 3 5 8 8 10 10 13 8 -1 2 7 6 5 6 5
22 -7 67 -13 10 11 17 7 -3 -32 -18 24 5 16 3 39 34 24 18 8 2 -1 1 10 12 14 6 4 4 4 7 9 8 9 11 4 6 9 9 6 4 0 7 7
27 25 -9 29 9 9 -2 15 18 -15 11 3 32 6 -19 3 -5 19 10 -2 -2 9 3 3 16 11 5 2 2 6 8 4 7 9 14 2 6 9 6 4 2 8 5 7
-61 -6 77 -3 12 1 1 -15 -8 37 -63 -0 5 23 28 11 2 7 -10 2 0 8 11 16 19 9 4 1 4 6 5 6 9 8 13 6 1 10 6 -0 6 7 8 7
4 -3 1 45 4 9 4 8 -1 -25 61 19 -43 12 13 21 46 16 8 10 9 7 11 20 14 8 -3 7 3 7 4 4 7 5 6 9 2 6 5 6 12 8 7 8
-12 46 20 46 13 39 18 3 4 -19 -20 15 -37 15 -28 -17 18 27 13 19 12 8 10 16 11 6 -7 -1 4 10 6 7 5 2 5 4 2 4 4 7 9 7 10 10
42 -12 -11 -51 18 9 23 17 13 11 8 -5 3 13 6 15 24 -5 10 8 8 9 18 11 24 12 -7 -0 -1 6 13 9 8 5 2 1 2 2 1 4 10 7 11 12
40 -8 5 0 -2 5 11 -13 7 12 1 -9 14 3 18 1 14 29 8 6 5 9 7 13 7 8 2 2 0 2 5 7 7 5 6 8 6 1 1 7 13 7 11 12
-11 -34 8 23 26 4 9 31 23 10 -8 17 -11 18 27 -20 1 -1 23 4 22 12 8 13 12 1 5 1 13 9 1 9 6 1 5 3 12 3 4 13 13 11 13 13
36 -39 49 20 25 4 43 6 29 10 16 7 13 1 -5 12 11 7 10 30 -13 9 25 -6 22 11 13 13 7 9 7 8 6 3 8 1 7 8 7 15 18 9 12 10
60 -20 17 43 11 6 52 24 10 21 24 -3 23 6 24 31 19 7 2 16 13 3 21 14 19 20 19 -21 23 7 3 5 15 14 14 -3 11 -2 13 3 13 1 8 1
44 -2 5 4 11 -8 13 15 39 -22 35 8 30 20 16 21 14 4 1 8 9 2 -1 -12 -1 25 26 35 11 1 18 11 1 -6 -13 -4 -3 3 5 3 12 7 2 -3
-5 42 -33 40 -9 -4 18 4 30 18 19 2 -5 2 -0 -15 -4 -3 -5 -2 8 14 5 9 23 15 19 -8 3 10 20 25 22 -19 25 26 32 20 30 3 1 13 26 17
35 35 5 18 13 41 57 -9 2 -19 20 -24 -0 8 7 15 26 25 22 16 6 2 1 0 4 9 25 11 13 21 -6 8 20 -15 4 21 17 1 10 19 15 7 12 14
-30 -26 4 -5 -4 22 26 -30 -5 -6 2 18 15 22 21 13 5 8 10 2 11 19 16 14 16 12 8 14 14 16 4 10 24 34 20 13 8 9 7 10 7 8 13 11
31 -32 -45 9 -3 -27 25 13 17 4 17 16 -1 -1 12 25 15 -11 3 10 12 -3 3 11 12 18 22 13 -0 13 17 9 11 13 12 14 3 2 5 2 0 9 10 9
8 43 3 4 42 -3 -35 11 0 16 14 14 8 13 -16 -9 -1 6 14 16 18 16 16 16 14 15 7 13 14 8 5 17 14 11 12 4 1 1 3 5 -0 10 5 -2
9 39 -11 6 -14 17 6 2 21 18 12 7 5 6 -8 7 10 9 19 10 14 13 16 15 12 9 5 0 2 12 14 10 14 12 8 2 9 12 10 -10 10 4 0 6
10 10 7 -9 16 -35 9 18 11 15 2 2 8 4 3 14 13 14 15 13 13 9 9 8 5 6 8 14 14 11 11 3 16 10 2 7 9 5 6 25 19 24 19 17
Height
3130 3128 3126 3134 3137 3139 3142 3143 3145 3146 3149 3152 3150 3150 3152 3152 3154 3155 3152 3153 3152 3147 3149 3150 3149 3150 3152 3152 3154 3154 3157 3157 3157 3157 3157 3157 3157 3157 3157 3157 3158 3158 3158 3157
3122 3112 3124 3131 3133 3136 3138 3138 3140 3140 3143 3147 3146 3145 3146 3146 3147 3147 3147 3148 3145 3143 3144 3145 3146 3145 3146 3148 3149 3150 3151 3152 3152 3153 3153 3152 3152 3152 3152 3153 3154 3154 3153 3153
3110 3112 3122 3123 3126 3131 3132 3134 3136 3138 3137 3138 3139 3134 3137 3140 3141 3140 3140 3140 3139 3136 3138 3139 3142 3141 3141 3143 3145 3146 3146 3147 3148 3148 3148 3147 3147 3147 3148 3148 3149 3149 3149 3148
3105 3110 3114 3115 3118 3125 3126 3130 3132 3134 3137 3134 3135 3126 3128 3132 3132 3133 3133 3134 3132 3131 3132 3133 3137 3137 3137 3138 3140 3141 3142 3143 3143 3143 3142 3142 3143 3143 3143 3144 3145 3145 3145 3144
3089 3097 3105 3104 3109 3118 3118 3127 3128 3130 3130 3129 3129 3131 3118 3126 3125 3125 3125 3128 3127 3126 3127 3130 3132 3133 3134 3135 3136 3137 3138 3139 3139 3138 3138 3138 3138 3139 3140 3141 3140 3140 3140 3139
3088 3096 3101 3100 3108 3114 3119 3121 3124 3125 3126 3122 3122 3129 3107 3117 3120 3118 3119 3121 3122 3122 3123 3125 3127 3128 3130 3131 3133 3134 3135 3135 3134 3133 3133 3133 3134 3135 3136 3136 3136 3135 3135 3135
3086 3084 3093 3098 3102 3108 3111 3113 3120 3124 3123 3111 3112 3115 3103 3110 3112 3113 3112 3114 3116 3118 3119 3121 3122 3123 3126 3128 3129 3130 3130 3130 3129 3129 3129 3130 3131 3132 3132 3132 3132 3132 3131 3131
3071 3076 3080 3087 3090 3095 3100 3103 3103 3113 3114 3102 3105 3098 3097 3103 3106 3108 3106 3109 3111 3111 3113 3115 3117 3119 3121 3123 3125 3125 3125 3125 3125 3125 3126 3126 3126 3127 3128 3127 3127 3128 3128 3127
3062 3065 3073 3078 3084 3090 3093 3093 3099 3102 3100 3099 3093 3092 3094 3095 3096 3098 3100 3103 3105 3105 3109 3110 3112 3114 3117 3119 3120 3120 3120 3120 3121 3121 3122 3123 3123 3122 3121 3122 3121 3120 3119 3118
3053 3062 3066 3072 3080 3081 3083 3091 3098 3098 3097 3096 3083 3087 3089 3091 3091 3092 3095 3097 3099 3100 3103 3104 3107 3110 3113 3114 3115 3115 3116 3117 3118 3118 3118 3118 3118 3118 3118 3116 3116 3113 3111 3110
3051 3054 3055 3064 3056 3065 3077 3079 3082 3086 3084 3080 3084 3079 3083 3085 3085 3086 3089 3092 3093 3096 3099 3099 3101 3106 3108 3110 3111 3111 3112 3112 3112 3113 3113 3113 3114 3114 3113 3112 3110 3109 3107 3106
3037 3048 3048 3048 3053 3057 3060 3060 3065 3069 3073 3073 3073 3070 3077 3080 3079 3081 3084 3086 3089 3092 3094 3094 3096 3100 3102 3105 3107 3107 3106 3105 3106 3108 3108 3108 3108 3108 3108 3108 3106 3104 3102 3100
3030 3035 3042 3046 3050 3045 3046 3057 3063 3065 3067 3061 3070 3063 3075 3075 3076 3077 3080 3082 3084 3087 3088 3089 3092 3093 3094 3097 3099 3101 3101 3100 3101 3101 3100 3101 3102 3101 3100 3099 3098 3096 3094 3093
3024 3023 3018 3011 3014 3037 3043 3045 3051 3057 3056 3056 3050 3063 3067 3070 3073 3074 3076 3077 3079 3082 3082 3083 3085 3087 3089 3090 3090 3093 3095 3096 3096 3096 3095 3095 3095 3095 3094 3093 3091 3090 3087 3085
3014 3009 3014 3014 3024 3031 3037 3038 3040 3040 3041 3048 3048 3054 3061 3066 3069 3069 3072 3073 3073 3074 3076 3077 3079 3083 3084 3084 3085 3086 3086 3087 3088 3090 3089 3089 3088 3087 3087 3084 3084 3081 3079 3077
3002 3002 3012 3011 3017 3024 3025 3025 3027 3030 3035 3039 3044 3046 3056 3061 3063 3065 3067 3068 3068 3069 3070 3072 3074 3077 3078 3079 3080 3079 3079 3078 3077 3079 3079 3079 3079 3080 3078 3077 3075 3074 3071 3069
2993 2995 3000 2999 3011 3018 3015 3001 3017 3022 3027 3032 3030 3040 3049 3053 3056 3058 3060 3063 3063 3065 3065 3067 3068 3070 3072 3073 3074 3075 3073 3071 3071 3070 3070 3072 3070 3073 3072 3071 3069 3068 3066 3063
2980 2990 2989 2992 3001 3001 2990 2998 3008 3014 3018 3024 3028 3037 3042 3045 3049 3051 3052 3053 3055 3057 3060 3061 3062 3063 3064 3063 3062 3062 3064 3064 3064 3064 3063 3061 3059 3060 3062 3063 3063 3062 3060 3057
2970 2977 2978 2982 2987 2989 2990 2993 2997 3003 3006 3013 3020 3028 3033 3037 3040 3041 3042 3044 3047 3050 3053 3055 3055 3054 3053 3052 3054 3057 3057 3056 3056 3054 3050 3049 3049 3049 3051 3050 3050 3051 3050 3047
2963 2967 2974 2976 2982 2982 2980 2989 2995 2999 3000 3007 3013 3019 3022 3026 3029 3032 3033 3036 3038 3041 3043 3045 3046 3046 3046 3049 3051 3049 3047 3044 3042 3041 3044 3045 3044 3039 3037 3042 3043 3042 3040 3038
2948 2960 2958 2966 2974 2974 2977 2985 2984 2994 2993 3002 3006 3010 3014 3017 3021 3024 3027 3029 3032 3035 3036 3038 3040 3041 3041 3041 3040 3040 3040 3039 3035 3035 3035 3034 3034 3035 3035 3035 3034 3034 3032 3030
2949 2952 2957 2964 2969 2971 2974 2979 2980 2986 2992 2994 2998 3001 3005 3009 3013 3017 3020 3024 3025 3027 3028 3031 3032 3033 3034 3034 3033 3031 3031 3030 3029 3028 3028 3028 3029 3029 3030 3029 3028 3027 3025 3022
2940 2939 2951 2960 2963 2967 2969 2973 2975 2981 2985 2988 2990 2995 2999 3004 3007 3011 3013 3014 3016 3017 3019 3021 3023 3024 3024 3025 3024 3023 3023 3023 3022 3022 3022 3022 3023 3023 3023 3022 3021 3020 3017 3013
2931 2937 2945 2952 2956 2960 2962 2965 2970 2973 2978 2983 2986 2991 2994 2998 3001 3002 3003 3005 3007 3008 3010 3012 3014 3015 3017 3016 3016 3016 3017 3017 3016 3016 3017 3017 3017 3016 3015 3014 3013 3011 3008 3005
2921 2929 2931 2938 2946 2955 2956 2959 2964 2969 2973 2977 2981 2984 2987 2991 2993 2994 2996 2997 2998 3000 3001 3003 3006 3007 3008 3009 3009 3009 3010 3011 3011 3011 3011 3010 3010 3008 3007 3006 3005 3002 3000 2997
2914 2918 2922 2927 2935 2941 2949 2955 2959 2963 2966 2971 2975 2977 2981 2984 2986 2988 2988 2989 2990 2993 2995 2996 2997 2998 2999 3001 3002 3004 3005 3006 3005 3005 3004 3003 3002 2999 2998 2997 2995 2993 2991 2987